This is the latest recevied weather packets stored in our database for station/object KC3ULW-13. If no packets are shown the sender has not sent any weather packets the latest 10 day(s).
| Time | Temp. | Humidity | Pressure | Rain* | Wind** | Luminosity | Snow |
|---|---|---|---|---|---|---|---|
| 1777224637 | 13.89° C | 67% | 1022 hPa | 0 mm | - | 314 W/m² | - |
| 1777224332 | 14.44° C | 66% | 1022.2 hPa | 0 mm | - | 378 W/m² | - |
| 1777224028 | 13.89° C | 67% | 1022.2 hPa | 0 mm | - | 523 W/m² | - |
| 1777223726 | 13.89° C | 68% | 1021.8 hPa | 0 mm | - | 343 W/m² | - |
| 1777223421 | 13.89° C | 68% | 1022 hPa | 0 mm | - | 314 W/m² | - |
| 1777223120 | 13.33° C | 68% | 1022.1 hPa | 0 mm | - | 326 W/m² | - |
| 1777222815 | 13.33° C | 70% | 1022 hPa | 0 mm | - | 322 W/m² | - |
| 1777222514 | 13.33° C | 70% | 1022.2 hPa | 0 mm | - | 333 W/m² | - |
| 1777222211 | 12.78° C | 71% | 1022.2 hPa | 0 mm | - | 295 W/m² | - |
| 1777221909 | 12.78° C | 71% | 1022.3 hPa | 0 mm | - | 300 W/m² | - |
| 1777221604 | 12.78° C | 72% | 1022.2 hPa | 0 mm | - | 293 W/m² | - |
| 1777221301 | 12.78° C | 72% | 1022.4 hPa | 0 mm | - | 303 W/m² | - |
| 1777220997 | 12.78° C | 71% | 1022.2 hPa | 0 mm | - | 237 W/m² | - |
| 1777220693 | 12.78° C | 72% | 1022.3 hPa | 0 mm | - | 231 W/m² | - |
| 1777220390 | 12.78° C | 72% | 1022.2 hPa | 0 mm | - | 252 W/m² | - |
| 1777220089 | 12.22° C | 72% | 1022.3 hPa | 0 mm | - | 254 W/m² | - |
| 1777219786 | 12.78° C | 71% | 1022.3 hPa | 0 mm | - | 278 W/m² | - |
| 1777219484 | 12.78° C | 72% | 1022.3 hPa | 0 mm | - | 245 W/m² | - |
| 1777219179 | 12.22° C | 72% | 1022.3 hPa | 0 mm | - | 242 W/m² | - |
| 1777218876 | 12.22° C | 73% | 1022.2 hPa | 0 mm | - | 236 W/m² | - |
| 1777218572 | 12.22° C | 73% | 1022.1 hPa | 0 mm | - | 254 W/m² | - |
| 1777218272 | 12.22° C | 74% | 1022.2 hPa | 0 mm | - | 269 W/m² | - |
| 1777217969 | 11.67° C | 75% | 1022.1 hPa | 0 mm | - | 311 W/m² | - |
| 1777217664 | 11.11° C | 76% | 1022.3 hPa | 0 mm | - | 250 W/m² | - |
| 1777217361 | 11.11° C | 77% | 1022.2 hPa | 0 mm | - | 185 W/m² | - |
* Rain latest hour (hover to see other rain measurements)
** Current wind speed in m/s (hover to see current wind gust speed)